Time,TemperatureF,DewpointF,PressureIn,WindDirection,WindDirectionDegrees,WindSpeedMPH,WindSpeedGustMPH,Humidity,HourlyPrecipIn,Conditions,Clouds,dailyrainin,SoftwareType,DateUTC
2013-09-02 00:14:00,70.0,67.0,29.77,West,264,0.0,0.0,91,0.00,,,1.46,,2013-09-02 04:14:00,
2013-09-02 00:54:00,70.0,67.0,29.77,West,264,0.0,0.0,91,0.00,,,1.46,,2013-09-02 04:54:00,
2013-09-02 01:13:00,70.0,67.0,29.77,West,264,0.0,0.0,91,0.00,,,1.46,,2013-09-02 05:13:00,
2013-09-02 01:23:00,70.0,67.0,29.77,West,264,0.0,0.0,91,0.00,,,1.46,,2013-09-02 05:23:00,
2013-09-02 01:52:00,70.0,67.0,29.76,West,264,0.0,2.0,91,0.00,,,1.46,,2013-09-02 05:52:00,
2013-09-02 02:12:00,70.0,67.0,29.76,West,264,0.0,0.0,91,0.00,,,1.46,,2013-09-02 06:12:00,
2013-09-02 02:22:00,70.0,67.0,29.76,West,264,0.0,0.0,91,0.00,,,1.46,,2013-09-02 06:22:00,
2013-09-02 02:43:00,70.0,67.0,29.76,West,264,0.0,0.0,91,0.00,,,1.46,,2013-09-02 06:43:00,
2013-09-02 02:52:00,70.0,67.0,29.75,West,264,0.0,0.0,91,0.00,,,1.46,,2013-09-02 06:52:00,
2013-09-02 03:01:00,70.0,67.0,29.75,West,264,0.0,0.0,91,0.00,,,1.46,,2013-09-02 07:01:00,
2013-09-02 03:11:00,70.0,67.0,29.75,West,264,0.0,0.0,91,0.00,,,1.46,,2013-09-02 07:11:00,
2013-09-02 03:22:00,69.0,66.0,29.75,West,264,0.0,0.0,91,0.00,,,1.46,,2013-09-02 07:22:00,
2013-09-02 03:42:00,69.0,66.0,29.75,West,264,0.0,0.0,91,0.00,,,1.46,,2013-09-02 07:42:00,
2013-09-02 03:52:00,69.0,66.0,29.75,West,264,0.0,0.0,91,0.00,,,1.46,,2013-09-02 07:52:00,
2013-09-02 04:11:00,69.0,66.0,29.75,West,264,0.0,0.0,91,0.00,,,1.46,,2013-09-02 08:11:00,
2013-09-02 04:22:00,69.0,66.0,29.75,West,264,0.0,0.0,91,0.00,,,1.46,,2013-09-02 08:22:00,
2013-09-02 04:52:00,69.0,66.0,29.75,West,264,0.0,0.0,91,0.00,,,1.46,,2013-09-02 08:52:00,
2013-09-02 05:12:00,69.0,66.0,29.75,West,264,0.0,0.0,91,0.00,,,1.46,,2013-09-02 09:12:00,
2013-09-02 05:22:00,69.0,66.0,29.75,West,264,0.0,0.0,91,0.00,,,1.46,,2013-09-02 09:22:00,
2013-09-02 05:43:00,69.0,66.0,29.75,West,264,0.0,0.0,91,0.00,,,1.46,,2013-09-02 09:43:00,
2013-09-02 05:53:00,69.0,66.0,29.75,West,264,0.0,0.0,91,0.00,,,1.46,,2013-09-02 09:53:00,
2013-09-02 06:13:00,69.0,66.0,29.75,West,264,0.0,0.0,91,0.00,,,1.46,,2013-09-02 10:13:00,
2013-09-02 06:23:00,68.0,65.0,29.75,West,264,0.0,0.0,91,0.00,,,1.46,,2013-09-02 10:23:00,
2013-09-02 06:42:00,68.0,65.0,29.76,West,264,0.0,0.0,91,0.00,,,1.46,,2013-09-02 10:42:00,
2013-09-02 06:53:00,68.0,65.0,29.76,West,264,0.0,0.0,91,0.00,,,1.46,,2013-09-02 10:53:00,
2013-09-02 07:11:00,68.0,65.0,29.76,West,264,0.0,0.0,91,0.00,,,1.46,,2013-09-02 11:11:00,
2013-09-02 07:22:00,68.0,65.0,29.76,West,264,0.0,0.0,91,0.00,,,1.46,,2013-09-02 11:22:00,
2013-09-02 07:42:00,68.0,65.0,29.76,West,264,0.0,0.0,91,0.00,,,1.46,,2013-09-02 11:42:00,
2013-09-02 07:52:00,68.0,65.0,29.77,West,264,0.0,0.0,91,0.00,,,1.46,,2013-09-02 11:52:00,
2013-09-02 08:12:00,68.0,65.0,29.77,West,264,0.0,0.0,91,0.00,,,1.46,,2013-09-02 12:12:00,
2013-09-02 08:21:00,68.0,65.0,29.77,West,264,0.0,0.0,91,0.00,,,1.46,,2013-09-02 12:21:00,
2013-09-02 08:43:00,68.0,65.0,29.77,West,264,0.0,0.0,91,0.00,,,1.46,,2013-09-02 12:43:00,
2013-09-02 08:52:00,69.0,66.0,29.77,West,264,0.0,0.0,91,0.00,,,1.46,,2013-09-02 12:52:00,
2013-09-02 09:11:00,69.0,66.0,29.77,West,264,0.0,0.0,91,0.00,,,1.46,,2013-09-02 13:11:00,
2013-09-02 09:22:00,69.0,66.0,29.77,West,264,0.0,0.0,91,0.00,,,1.46,,2013-09-02 13:22:00,
2013-09-02 09:42:00,69.0,66.0,29.77,West,264,0.0,0.0,91,0.00,,,1.46,,2013-09-02 13:42:00,
2013-09-02 09:52:00,70.0,67.0,29.78,West,264,0.0,0.0,91,0.00,,,1.46,,2013-09-02 13:52:00,
2013-09-02 10:11:00,71.0,68.0,29.78,West,264,0.0,0.0,91,0.00,,,1.46,,2013-09-02 14:11:00,
2013-09-02 10:22:00,72.0,70.0,29.79,West,264,0.0,0.0,92,0.00,,,1.46,,2013-09-02 14:22:00,
2013-09-02 10:43:00,73.0,70.0,29.79,West,264,0.0,0.0,91,0.00,,,1.46,,2013-09-02 14:43:00,
2013-09-02 10:52:00,73.0,70.0,29.80,West,264,0.0,0.0,91,0.00,,,1.46,,2013-09-02 14:52:00,
2013-09-02 11:12:00,74.0,71.0,29.80,West,264,0.0,0.0,91,0.00,,,1.46,,2013-09-02 15:12:00,
2013-09-02 11:23:00,78.0,72.0,29.80,West,264,0.0,0.0,82,0.00,,,1.46,,2013-09-02 15:23:00,
2013-09-02 11:54:00,80.0,72.0,29.80,West,264,0.0,0.0,76,0.00,,,1.46,,2013-09-02 15:54:00,
2013-09-02 12:14:00,80.0,72.0,29.80,West,264,0.0,0.0,78,0.00,,,1.46,,2013-09-02 16:14:00,
2013-09-02 12:24:00,79.0,71.0,29.79,West,264,0.0,0.0,76,0.00,,,1.46,,2013-09-02 16:24:00,
2013-09-02 12:53:00,82.0,71.0,29.79,West,264,0.0,0.0,69,0.00,,,1.46,,2013-09-02 16:53:00,
2013-09-02 13:13:00,82.0,71.0,29.78,West,264,0.0,0.0,69,0.00,,,1.46,,2013-09-02 17:13:00,
2013-09-02 13:23:00,81.0,71.0,29.78,West,264,0.0,0.0,71,0.00,,,1.46,,2013-09-02 17:23:00,
2013-09-02 13:45:00,82.0,70.0,29.78,West,264,0.0,0.0,68,0.00,,,1.46,,2013-09-02 17:45:00,
2013-09-02 13:52:00,82.0,70.0,29.78,West,264,0.0,0.0,68,0.00,,,1.46,,2013-09-02 17:52:00,
2013-09-02 14:13:00,83.0,70.0,29.77,South,185,0.0,0.0,66,0.00,,,1.46,,2013-09-02 18:13:00,
2013-09-02 14:22:00,82.0,70.0,29.77,South,184,0.0,0.0,67,0.00,,,1.46,,2013-09-02 18:22:00,
2013-09-02 14:52:00,82.0,71.0,29.76,South,184,0.0,0.0,69,0.00,,,1.46,,2013-09-02 18:52:00,
2013-09-02 15:12:00,81.0,71.0,29.76,South,184,0.0,0.0,72,0.00,,,1.46,,2013-09-02 19:12:00,
2013-09-02 15:22:00,81.0,73.0,29.75,South,184,0.0,0.0,76,0.00,,,1.46,,2013-09-02 19:22:00,
2013-09-02 15:52:00,81.0,72.0,29.74,South,184,0.0,0.0,73,0.00,,,1.46,,2013-09-02 19:52:00,
2013-09-02 16:12:00,81.0,72.0,29.73,South,184,0.0,0.0,75,0.00,,,1.46,,2013-09-02 20:12:00,
2013-09-02 16:22:00,81.0,73.0,29.73,South,184,0.0,0.0,78,0.00,,,1.46,,2013-09-02 20:22:00,
2013-09-02 16:52:00,82.0,72.0,29.72,South,184,0.0,0.0,72,0.00,,,1.46,,2013-09-02 20:52:00,
2013-09-02 17:12:00,83.0,71.0,29.72,South,184,0.0,0.0,67,0.00,,,1.46,,2013-09-02 21:12:00,
2013-09-02 17:23:00,83.0,70.0,29.72,WSW,240,0.0,1.0,66,0.00,,,1.46,,2013-09-02 21:23:00,
2013-09-02 17:55:00,81.0,72.0,29.72,WSW,240,0.0,0.0,73,0.00,,,1.46,,2013-09-02 21:55:00,
2013-09-02 18:13:00,81.0,71.0,29.72,SW,230,0.0,0.0,72,0.00,,,1.46,,2013-09-02 22:13:00,
2013-09-02 18:24:00,82.0,72.0,29.72,SW,230,0.0,0.0,71,0.00,,,1.46,,2013-09-02 22:24:00,
2013-09-02 18:54:00,80.0,72.0,29.72,SW,230,0.0,0.0,76,0.00,,,0.71,,2013-09-02 22:54:00,
2013-09-02 19:12:00,80.0,72.0,29.72,SW,230,0.0,0.0,77,0.00,,,0.71,,2013-09-02 23:12:00,
2013-09-02 19:22:00,79.0,72.0,29.71,SW,230,0.0,0.0,79,0.00,,,0.71,,2013-09-02 23:22:00,
2013-09-02 19:52:00,78.0,72.0,29.71,SW,230,0.0,0.0,82,0.00,,,0.31,,2013-09-02 23:52:00,
2013-09-02 20:12:00,77.0,72.0,29.72,SW,230,0.0,0.0,84,0.00,,,0.31,,2013-09-03 00:12:00,
2013-09-02 20:22:00,77.0,72.0,29.72,SW,230,0.0,0.0,85,0.00,,,0.31,,2013-09-03 00:22:00,
2013-09-02 20:42:00,77.0,72.0,29.72,SW,230,0.0,0.0,84,0.00,,,0.13,,2013-09-03 00:42:00,
2013-09-02 20:52:00,77.0,72.0,29.73,SW,230,0.0,0.0,84,0.00,,,0.13,,2013-09-03 00:52:00,
2013-09-02 21:11:00,77.0,72.0,29.73,SW,230,0.0,0.0,84,0.00,,,0.13,,2013-09-03 01:11:00,
2013-09-02 21:22:00,77.0,72.0,29.74,SW,230,0.0,0.0,84,0.00,,,0.13,,2013-09-03 01:22:00,
2013-09-02 21:42:00,76.0,71.0,29.75,SW,230,0.0,0.0,84,0.00,,,0.05,,2013-09-03 01:42:00,
2013-09-02 21:52:00,76.0,71.0,29.75,SW,230,0.0,0.0,84,0.00,,,0.05,,2013-09-03 01:52:00,
2013-09-02 22:12:00,76.0,71.0,29.75,SW,230,0.0,0.0,84,0.00,,,0.05,,2013-09-03 02:12:00,
2013-09-02 22:21:00,75.0,70.0,29.75,SW,230,0.0,0.0,85,0.00,,,0.05,,2013-09-03 02:21:00,
2013-09-02 22:42:00,75.0,70.0,29.75,SW,230,0.0,0.0,85,0.00,,,0.00,,2013-09-03 02:42:00,
2013-09-02 22:52:00,75.0,70.0,29.74,SW,230,0.0,0.0,85,0.00,,,0.00,,2013-09-03 02:52:00,
2013-09-02 23:11:00,74.0,69.0,29.74,SW,230,0.0,0.0,85,0.00,,,0.00,,2013-09-03 03:11:00,
2013-09-02 23:23:00,74.0,69.0,29.74,SW,230,0.0,0.0,85,0.00,,,0.00,,2013-09-03 03:23:00,
2013-09-02 23:45:00,74.0,69.0,29.74,SW,230,0.0,0.0,85,0.00,,,0.00,,2013-09-03 03:45:00,
2013-09-02 23:55:00,74.0,70.0,29.74,SW,230,0.0,0.0,86,0.00,,,0.00,,2013-09-03 03:55:00,